Regional Weather Roundup
Issued by NWS

Home | Current Version | Previous Version | Text Only | Print | Product List | Glossary Off
Versions: 1 2 3 4 5 6 7 8 9 10 11 12 13 14 15 16 17 18 19 20 21 22 23 24 25 26 27 28 29 30 31 32 33 34 35 36 37 38 39 40 41 42 43 44 45 46 47 48 49 50

000
ASUS43 KFSD 202302
RWRSD

WEATHER ROUNDUP FOR SOUTH DAKOTA
NATIONAL WEATHER SERVICE SIOUX FALLS SD
600 PM CDT THU JUL 20 2017

NOTE: "FAIR" INDICATES FEW OR NO CLOUDS BELOW 12,000 FEET WITH NO
SIGNIFICANT WEATHER AND/OR OBSTRUCTIONS TO VISIBILITY.


SDZ001>005-009-010-012>017-210000-
NORTHWEST AND NORTH CENTRAL SOUTH DAKOTA

CITY           SKY/WX    TMP DP  RH WIND       PRES   REMARKS
BUFFALO          N/A     99  55  23 S32G41    29.70F HX  97
FAITH            N/A     96  61  31 SE23G36   29.84F HX  96
MOBRIDGE       SUNNY     93  56  28 SE20      29.84F
$$

SDZ012>016-024>037-041>051-057-063-072>074-210000-
SOUTHWEST AND SOUTH CENTRAL SOUTH DAKOTA

CITY           SKY/WX    TMP DP  RH WIND       PRES   REMARKS
RAPID CTY ARPT SUNNY     98  58  26 S21G29    29.90F HX  97
PIERRE         NOT AVBL
CUSTER         SUNNY     86  53  32 S9G18     30.10F
ELLSWORTH AFB  SUNNY     97  57  26 S18G26    29.89F HX  96
PHILIP         SUNNY    100  59  25 S16G26    29.85F HX 100
PINE RIDGE     SUNNY     92  63  38 SE8       29.96F
SPEARFISH      LGT RAIN  99  54  22 SW12G18   29.91F HX  96
WINNER         FAIR      98  63  31 SE18      29.92F HX 100
$$

SDZ004>011-016>023-039-040-210000-
NORTHEAST SOUTH DAKOTA

CITY           SKY/WX    TMP DP  RH WIND       PRES   REMARKS
ABERDEEN       SUNNY     88  65  46 SE12      29.93F
WATERTOWN      SUNNY     86  59  39 SE10      29.97F
BROOKINGS      SUNNY     86  63  45 SE13      29.98F
SISSETON         N/A     87  69  54 SE12      29.94F
$$

SDZ017-020-022-023-036>040-048>070-210000-
SOUTHEAST SOUTH DAKOTA

CITY           SKY/WX    TMP DP  RH WIND       PRES   REMARKS
SIOUX FALLS    CLOUDY    87  70  56 SE13      29.96F
HURON          SUNNY     89  70  53 SE14      29.92F
CHAMBERLAIN    SUNNY     95  67  39 SE12      29.91F HX  99
MITCHELL       SUNNY     88  74  63 SE12      29.93F HX  96
$$

ABBREVIATIONS USED IN REMARKS
   TC - TEMPERATURE IN CELSIUS
  WCI - WIND CHILL INDEX
   HX - HEAT INDEX
  VSB - VISIBILITY




USA.gov is the U.S. government's official web portal to all federal, state and local government web resources and services.